TimeCDT,TemperatureF,Dew PointF,Humidity,Sea Level PressureIn,VisibilityMPH,Wind Direction,Wind SpeedMPH,Gust SpeedMPH,PrecipitationIn,Events,Conditions,WindDirDegrees,DateUTC
12:55 AM,42.1,37.0,82,29.66,10.0,WSW,9.2,-,N/A,,Mostly Cloudy,240,2012-10-09 05:55:00
1:55 AM,41.0,37.0,86,29.67,10.0,WSW,10.4,-,N/A,,Partly Cloudy,240,2012-10-09 06:55:00
2:55 AM,39.0,36.0,89,29.67,10.0,West,9.2,-,N/A,,Partly Cloudy,260,2012-10-09 07:55:00
3:55 AM,39.0,36.0,89,29.68,10.0,West,9.2,-,N/A,,Partly Cloudy,260,2012-10-09 08:55:00
4:55 AM,39.9,36.0,86,29.67,10.0,WSW,8.1,-,N/A,,Scattered Clouds,240,2012-10-09 09:55:00
5:55 AM,39.9,36.0,86,29.68,10.0,WSW,9.2,-,N/A,,Overcast,250,2012-10-09 10:55:00
6:55 AM,41.0,36.0,82,29.68,10.0,WSW,9.2,-,N/A,,Mostly Cloudy,240,2012-10-09 11:55:00
7:55 AM,41.0,34.0,76,29.68,10.0,West,15.0,-,N/A,,Mostly Cloudy,260,2012-10-09 12:55:00
8:55 AM,41.0,33.1,73,29.68,10.0,West,12.7,18.4,N/A,,Scattered Clouds,260,2012-10-09 13:55:00
9:55 AM,43.0,32.0,65,29.69,10.0,West,18.4,31.1,N/A,,Scattered Clouds,260,2012-10-09 14:55:00
10:55 AM,45.0,30.9,58,29.70,10.0,West,20.7,27.6,N/A,,Scattered Clouds,260,2012-10-09 15:55:00
11:55 AM,46.0,28.9,51,29.69,10.0,West,18.4,-,N/A,,Mostly Cloudy,270,2012-10-09 16:55:00
12:55 PM,44.1,28.0,53,29.70,10.0,West,19.6,24.2,N/A,,Mostly Cloudy,260,2012-10-09 17:55:00
1:55 PM,43.0,28.9,58,29.70,10.0,WNW,17.3,25.3,N/A,,Overcast,290,2012-10-09 18:55:00
2:55 PM,42.1,30.9,65,29.72,10.0,West,15.0,27.6,0.00,,Overcast,280,2012-10-09 19:55:00
3:27 PM,42.8,30.2,61,29.68,10.0,WNW,19.6,26.5,N/A,,Overcast,290,2012-10-09 20:27:00
3:38 PM,42.8,30.2,61,29.68,10.0,West,15.0,28.8,N/A,,Overcast,280,2012-10-09 20:38:00
3:47 PM,42.8,30.2,61,29.68,10.0,West,17.3,26.5,N/A,,Overcast,280,2012-10-09 20:47:00
3:55 PM,43.0,30.9,62,29.73,10.0,West,19.6,25.3,N/A,,Overcast,280,2012-10-09 20:55:00
4:04 PM,39.2,33.8,81,29.69,3.0,WNW,13.8,24.2,0.00,Rain,Light Rain,300,2012-10-09 21:04:00
4:19 PM,39.2,35.6,87,29.69,10.0,West,15.0,21.9,0.01,,Overcast,280,2012-10-09 21:19:00
4:53 PM,37.4,33.8,87,29.71,3.0,WNW,17.3,28.8,0.02,Rain,Light Rain,290,2012-10-09 21:53:00
4:55 PM,37.9,34.0,86,29.76,3.0,WNW,18.4,28.8,0.02,Rain,Light Rain,290,2012-10-09 21:55:00
5:20 PM,37.4,33.8,87,29.72,10.0,WNW,13.8,-,0.01,Rain,Light Rain,300,2012-10-09 22:20:00
5:55 PM,39.0,34.0,82,29.78,10.0,WNW,15.0,-,0.01,,Mostly Cloudy,290,2012-10-09 22:55:00
6:02 PM,39.2,33.8,81,29.74,10.0,WNW,13.8,-,0.00,Rain,Light Rain,290,2012-10-09 23:02:00
6:28 PM,37.4,32.0,81,29.75,10.0,WNW,16.1,25.3,0.00,,Mostly Cloudy,290,2012-10-09 23:28:00
6:55 PM,37.0,30.9,79,29.82,10.0,WNW,16.1,23.0,0.00,,Mostly Cloudy,300,2012-10-09 23:55:00
7:28 PM,37.4,30.2,75,29.79,10.0,WNW,15.0,23.0,N/A,,Mostly Cloudy,300,2012-10-10 00:28:00
7:55 PM,36.0,32.0,86,29.85,10.0,WNW,11.5,19.6,0.00,,Overcast,300,2012-10-10 00:55:00
8:55 PM,35.1,30.9,85,29.87,10.0,NW,11.5,-,N/A,,Mostly Cloudy,310,2012-10-10 01:55:00
9:02 PM,35.6,30.2,81,29.83,10.0,WNW,12.7,-,N/A,,Overcast,300,2012-10-10 02:02:00
9:55 PM,35.1,30.0,82,29.88,10.0,WNW,11.5,-,N/A,,Overcast,300,2012-10-10 02:55:00
10:44 PM,33.8,28.4,81,29.85,9.0,WNW,13.8,-,N/A,Snow,Light Snow,300,2012-10-10 03:44:00
10:55 PM,34.0,28.9,82,29.90,9.0,NW,11.5,-,0.00,,Scattered Clouds,310,2012-10-10 03:55:00
11:25 PM,33.8,28.4,81,29.86,10.0,WNW,10.4,-,N/A,,Mostly Cloudy,300,2012-10-10 04:25:00
11:55 PM,33.1,28.0,82,29.90,10.0,WNW,13.8,20.7,N/A,,Scattered Clouds,300,2012-10-10 04:55:00